FW8494 Weather Reports


Display with metric or nautical units.
time (UTC)temp
F
wind
direction
speed
MPH
gust
MPH
rain 1hr
in
rain 24hr
in
rain mn
in
humidity
%
barometer
mb
20260504204529 56 335 18.0 0.0 0.00 0.00 0.00 29 1012.1
20260504203024 55 302 17.0 0.0 0.00 0.00 0.00 30 1011.7
20260504201518 54 332 20.0 0.0 0.00 0.00 0.00 31 1011.7
20260504200018 54 302 19.0 0.0 0.00 0.00 0.00 30 1011.7
20260504194517 54 335 18.0 0.0 0.00 0.00 0.00 31 1011.7
20260504193017 54 337 18.0 0.0 0.00 0.00 0.00 32 1011.7
20260504191516 54 321 17.0 0.0 0.00 0.00 0.00 32 1011.8
20260504190016 55 320 18.0 0.0 0.00 0.00 0.00 32 1011.8
20260504184514 55 338 15.0 0.0 0.00 0.00 0.00 31 1011.8
20260504183014 56 360 13.0 0.0 0.00 0.00 0.00 32 1011.8
20260504181513 55 329 16.0 0.0 0.00 0.00 0.00 33 1011.8
20260504180013 57 329 15.0 0.0 0.00 0.00 0.00 31 1011.7
20260504174509 56 317 16.0 0.0 0.00 0.00 0.00 34 1011.8
20260504173008 55 355 13.0 0.0 0.00 0.00 0.00 35 1011.8
20260504171508 55 303 13.0 0.0 0.00 0.00 0.00 36 1011.7
20260504081523 48 355 13.0 0.0 0.00 0.00 0.00 54 1011.1
20260504044550 56 29 18.0 0.0 0.00 0.00 0.00 37 1006.0
20260504043055 59 5 15.0 0.0 0.00 0.00 0.00 35 1005.4
20260504041549 59 14 13.0 0.0 0.00 0.00 0.00 33 1005.1
20260504040049 59 16 11.0 0.0 0.00 0.00 0.00 33 1004.7
20260504034555 59 20 12.0 0.0 0.00 0.00 0.00 33 1004.5
20260504033047 60 37 13.0 0.0 0.00 0.00 0.00 34 1004.1
20260504031547 60 25 11.0 0.0 0.00 0.00 0.00 34 1003.8
20260504030046 62 27 12.0 0.0 0.00 0.00 0.00 32 1003.6
20260504024551 64 43 11.0 0.0 0.00 0.00 0.00 28 1003.2
20260504023045 65 21 6.0 0.0 0.00 0.00 0.00 23 1003.0
20260504021549 67 13 6.0 0.0 0.00 0.00 0.00 21 1002.9
20260504020044 69 5 9.0 0.0 0.00 0.00 0.00 20 1003.0
20260504014544 70 5 10.0 0.0 0.00 0.00 0.00 19 1003.0
20260504013056 71 5 10.0 0.0 0.00 0.00 0.00 19 1003.0
20260504011543 72 333 11.0 0.0 0.00 0.00 0.00 18 1003.1
20260504010043 73 355 11.0 0.0 0.00 0.00 0.00 18 1003.2
20260504004539 73 330 11.0 0.0 0.00 0.00 0.00 18 1003.3
20260504003039 74 327 11.0 0.0 0.00 0.00 0.00 18 1003.4
20260504001540 74 360 12.0 0.0 0.00 0.00 0.00 18 1003.5
20260504000037 75 311 13.0 0.0 0.00 0.00 0.00 18 1003.7
20260503234535 75 355 12.0 0.0 0.00 0.00 0.00 17 1003.7
20260503233034 76 344 9.0 0.0 0.00 0.00 0.00 16 1003.7
20260503231533 77 340 10.0 0.0 0.00 0.00 0.00 16 1004.0
20260503230039 76 303 7.0 0.0 0.00 0.00 0.00 16 1004.0
20260503224529 76 336 12.0 0.0 0.00 0.00 0.00 16 1004.2
20260503223027 75 259 9.0 0.0 0.00 0.00 0.00 16 1004.5
20260503221529 75 267 8.0 0.0 0.00 0.00 0.00 16 1004.8
20260503220025 74 284 14.0 0.0 0.00 0.00 0.00 16 1005.0
20260503214536 74 278 6.0 0.0 0.00 0.00 0.00 18 1005.1
20260503213022 74 245 8.0 0.0 0.00 0.00 0.00 17 1005.4
20260503211519 76 324 8.0 0.0 0.00 0.00 0.00 16 1005.8
20260503210017 74 275 7.0 0.0 0.00 0.00 0.00 18 1006.1